Location: Helsinki
(60.1699°N, 24.9384°E)
Time: 16:46:43
(UTC+02:00)

S-56A Canister/Altair - Pass Details

Date: 31 October 2020
Orbit: 633 x 2500 km, 38.9° (Epoch: 29 November)

Event Time Altitude Azimuth Distance (km) Brightness Sun altitude
Rises 09:36:31 0° 245° (WSW) 3,948 11.1 9.9°
Reaches altitude 10° 09:41:00 10° 219° (SW) 3,372 11.1 10.2°
Maximum altitude 09:44:24 13° 195° (SSW) 3,433 11.6 10.4°
Drops below altitude 10° 09:48:17 10° 172° (S) 3,968 12.6 10.7°
Sets 09:54:45 0° 150° (SSE) 5,423 14.1 11.1°
